WB2COY Weather Reports


time (UTC)temp
C
wind
direction
speed
KPH
gust
KPH
rain 1hr
cm
rain 24hr
cm
rain mn
cm
humidity
%
barometer
mb
20260831023017 21 0.0 1.6 0.03 0.03 0.03 72 1019.2
20260831020021 22 0.0 1.6 0.00 0.00 0.00 70 1019.1
20260831013017 22 0.0 0.0 0.00 0.00 0.00 68 1018.7
20260831010015 22 0.0 0.0 0.00 0.00 0.00 67 1018.4
20260831003015 22 0.0 3.2 0.00 0.00 0.00 66 1017.9
20260831000036 22 0.0 0.0 0.00 0.00 0.00 68 1017.5
20260830233015 22 0.0 3.2 0.00 0.00 0.00 68 1017.2
20260830230035 22 0.0 1.6 0.00 0.00 0.00 68 1017.3
20260830223015 23 0.0 3.2 0.00 0.00 0.00 66 1017.4
20260830220015 23 0.0 6.4 0.00 0.00 0.00 65 1017.3
20260830213016 24 0.0 6.4 0.00 0.00 0.00 64 1017.1
20260830210015 24 248 1.6 8.0 0.00 0.00 0.00 63 1017.4
20260830203016 25 225 1.6 8.0 0.00 0.00 0.00 60 1017.5
20260830200016 25 225 1.6 6.4 0.00 0.00 0.00 60 1017.7
20260830193017 25 225 1.6 8.0 0.00 0.00 0.00 59 1017.8
20260830190017 25 225 1.6 9.7 0.00 0.00 0.00 57 1018.2
20260830183017 25 225 3.2 11.3 0.00 0.00 0.00 56 1018.6
20260830180015 25 225 1.6 9.7 0.00 0.00 0.00 54 1019.0
20260830173017 27 225 3.2 12.9 0.00 0.00 0.00 48 1019.1
20260830170017 27 225 1.6 12.9 0.00 0.00 0.00 46 1019.4
20260830163016 26 225 1.6 11.3 0.00 0.00 0.00 49 1019.7
20260830160018 26 203 1.6 9.7 0.00 0.00 0.00 46 1020.1
20260830153023 25 225 1.6 11.3 0.00 0.00 0.00 47 1020.7
20260830150016 24 0.0 8.0 0.00 0.00 0.00 48 1020.9
20260830143018 23 0.0 4.8 0.00 0.00 0.00 55 1021.1
20260830140016 22 0.0 3.2 0.00 0.00 0.00 55 1021.2
20260830133036 21 0.0 3.2 0.00 0.00 0.00 57 1021.3
20260830130017 20 0.0 3.2 0.00 0.00 0.00 59 1021.6
20260830123017 19 0.0 1.6 0.00 0.00 0.00 62 1022.0
20260830120017 17 0.0 0.0 0.00 0.00 0.00 66 1022.1
20260830113017 16 0.0 0.0 0.00 0.00 0.00 72 1022.4
20260830110021 15 0.0 0.0 0.00 0.00 0.00 71 1022.3
20260830103016 15 0.0 0.0 0.00 0.00 0.00 72 1022.0
20260830100016 15 0.0 0.0 0.00 0.00 0.00 72 1022.0
20260830093036 15 0.0 0.0 0.00 0.00 0.00 71 1022.2
20260830090015 15 0.0 0.0 0.00 0.00 0.00 71 1022.1
20260830083016 15 0.0 0.0 0.00 0.00 0.00 71 1022.4
20260830080017 15 0.0 0.0 0.00 0.00 0.00 71 1022.3
20260830073017 15 0.0 0.0 0.00 0.00 0.00 71 1022.5
20260830070016 14 0.0 0.0 0.00 0.00 0.00 72 1022.1
20260830060015 14 0.0 0.0 0.00 0.00 0.00 70 1022.5
20260830053035 15 0.0 0.0 0.00 0.00 0.00 69 1022.3
20260830050035 15 0.0 0.0 0.00 0.00 0.00 69 1022.1
20260830043015 15 0.0 0.0 0.00 0.00 0.00 68 1022.3
20260830040015 15 0.0 0.0 0.00 0.00 0.00 68 1022.1
20260830033016 16 0.0 0.0 0.00 0.00 0.00 68 1022.1
20260830030016 16 0.0 0.0 0.00 0.00 0.00 67 1022.0